Temp_Advection
nan nan nan nan nan nan nan nan nan nan nan nan nan nan nan nan nan nan nan nan nan nan nan nan nan nan nan nan nan nan nan nan nan nan nan nan nan nan nan nan nan nan nan
nan 0 0 0 -0 0 -0 -0 -0 -0 -0 -0 -0 -0 -0 -0 -0 -0 -0 -0 -0 -0 -0 -0 -0 -0 -0 0 -0 -0 -0 -0 -0 -0 -0 -0 -0 -0 0 0 0 -0 nan
nan 0 0 -0 -0 -0 0 -0 -0 -0 -0 -0 -0 -0 -0 -0 -0 -0 -0 -0 -0 -0 0 0 0 -0 -0 -0 -0 -0 -0 -0 -0 -0 -0 0 0 -0 -0 -0 -0 -0 nan
nan 0 0 0 0 -0 -0 -0 -0 -0 -0 0 -0 -0 -0 -0 -0 -0 -0 -0 -0 -0 -0 -0 0 0 0 0 -0 -0 -0 0 0 0 0 0 -0 -0 -0 -0 -0 -0 nan
nan 0 0 0 -0 -0 -0 -0 -0 -0 -0 -0 -0 -0 -0 -0 -0 -0 -0 -0 -0 -0 -0 -0 -0 -0 0 0 0 -0 -0 -0 -0 0 0 0 0 -0 -0 -0 -0 -0 nan
nan 0 0 0 -0 0 -0 -0 -0 -0 -0 -0 0 0 -0 -0 -0 -0 -0 -0 -0 -0 -0 -0 -0 -0 -0 0 0 0 -0 -0 -0 -0 0 0 0 0 -0 -0 -0 -0 nan
nan -0 -0 -0 -0 0 0 0 -0 -0 -0 -0 -0 0 0 0 -0 -0 -0 -0 -0 -0 -0 -0 -0 -0 -0 -0 0 0 0 -0 -0 -0 -0 0 0 0 -0 -0 -0 0 nan
nan -0 -0 -0 0 0 0 0 0 0 0 0 -0 -0 0 0 -0 -0 -0 -0 -0 -0 -0 -0 -0 -0 -0 -0 -0 -0 0 0 -0 0 0 0 0 0 -0 -0 -0 -0 nan
nan 0 -0 -0 -0 -0 0 0 0 0 0 0 0 0 0 0 0 0 -0 -0 -0 -0 -0 -0 -0 -0 -0 -0 -0 -0 -0 -0 -0 -0 -0 0 0 0 0 -0 -0 -0 nan
nan -0 -0 -0 -0 -0 -0 -0 -0 0 -0 -0 0 0 0 0 0 0 -0 -0 -0 -0 -0 -0 -0 -0 -0 -0 -0 -0 -0 -0 -0 -0 -0 -0 0 0 0 -0 -0 -0 nan
nan -0 -0 -0 -0 -0 -0 -0 -0 -0 -0 -0 -0 -0 0 0 0 0 0 0 -0 -0 -0 -0 -0 -0 -0 -0 -0 -0 -0 -0 -0 -0 -0 -0 0 0 0 0 -0 -0 nan
nan -0 -0 -0 -0 -0 -0 -0 -0 -0 0 -0 -0 -0 -0 0 0 0 0 0 0 0 0 -0 -0 -0 -0 -0 -0 -0 -0 -0 -0 -0 0 -0 -0 -0 0 0 0 0 nan
nan -0 -0 -0 -0 -0 -0 -0 -0 -0 -0 -0 -0 -0 -0 -0 -0 0 0 0 0 0 0 0 0 0 0 -0 -0 -0 0 -0 -0 -0 -0 -0 -0 -0 -0 0 -0 -0 nan
nan -0 -0 -0 -0 -0 -0 -0 -0 -0 -0 -0 -0 -0 -0 -0 -0 -0 -0 0 0 0 -0 -0 -0 0 0 0 0 -0 0 -0 -0 -0 -0 -0 -0 -0 -0 0 -0 -0 nan
nan -0 -0 -0 -0 -0 -0 -0 -0 0 -0 -0 -0 -0 -0 -0 -0 -0 0 0 0 0 0 -0 -0 -0 -0 -0 -0 -0 0 0 -0 -0 -0 -0 -0 -0 -0 -0 0 0 nan
nan -0 -0 -0 -0 -0 -0 -0 -0 -0 -0 -0 -0 -0 -0 -0 -0 -0 -0 -0 0 -0 0 0 -0 -0 -0 -0 -0 -0 -0 -0 -0 -0 -0 -0 -0 -1 -1 -0 -0 -0 nan
nan -0 -0 -0 -0 -0 -0 -0 -0 -0 -0 -0 -0 -0 -0 -0 -0 -0 -0 -0 -0 -0 -0 -0 0 0 0 -0 -0 -0 -0 -0 -0 -0 -0 -0 -0 -0 -1 -1 -1 -1 nan
nan 0 0 -0 -0 -0 -0 -0 -0 -0 -0 -0 -0 -0 -0 -0 -0 -0 -0 -0 -0 -0 -0 -0 -0 -0 -0 0 0 0 -0 -0 -0 -0 -0 -0 -0 -0 -0 -0 -0 -1 nan
nan 0 0 -0 -0 -0 -0 -0 0 -0 -0 -0 -0 -0 -0 -0 -0 -0 -0 -0 -0 -0 -0 -0 -0 -0 -0 -0 -0 -0 -0 -0 0 -0 -0 -0 -0 -0 -0 -0 -0 -0 nan
nan 0 0 -0 -0 -0 -0 0 0 0 -0 -0 -0 -0 -0 -0 -0 -0 -0 -0 -0 -0 -0 -0 -0 -0 0 0 0 -0 -0 -0 -0 0 -0 -0 -0 -0 -0 -0 -0 -0 nan
nan 0 0 0 -0 -0 0 0 0 0 -0 -0 -0 -0 -0 -0 -0 -0 -0 -0 -0 -0 -0 -0 0 0 0 0 -0 -0 -0 -0 -0 -0 -0 -0 -0 -0 -0 -0 -0 -0 nan
nan 0 0 0 0 0 0 0 0 0 -0 0 -0 -0 -0 -0 -0 -0 -0 -0 0 -0 -0 -0 0 0 -0 -0 -0 -0 -0 0 -0 -0 -0 -0 -0 -1 -1 -0 -0 -0 nan
nan 0 0 0 0 0 0 0 0 0 0 -0 -0 -0 -0 -0 -0 -0 -0 -0 -0 -0 -0 -0 -0 -0 -0 -0 -0 -0 -0 -0 -1 0 0 -0 0 -0 -0 -1 -1 -1 nan
nan 0 0 0 0 0 0 0 0 0 0 -0 -0 -0 0 0 0 -0 -0 0 -0 -0 -0 -0 -0 -0 -0 -0 -0 -0 0 0 -0 -0 -0 0 0 0 0 -0 -0 -0 nan
nan 0 0 0 0 0 0 0 0 -0 -0 -0 -0 -0 -0 -0 -0 -0 -0 -0 -0 -0 -0 -0 -0 -0 -0 -0 -0 -0 0 0 0 0 -1 -1 -0 0 -0 -0 -0 -0 nan
nan nan nan nan nan nan nan nan nan nan nan nan nan nan nan nan nan nan nan nan nan nan nan nan nan nan nan nan nan nan nan nan nan nan nan nan nan nan nan nan nan nan nan
Wind_Speed
2 2 3 4 4 4 3 3 3 3 3 4 4 5 6 6 7 8 8 7 6 5 7 6 4 4 4 4 4 6 6 4 3 3 3 2 1 2 0 1 2 2 3
3 1 4 4 3 3 3 2 2 2 2 3 4 4 4 5 5 6 6 6 6 5 4 4 3 3 3 3 4 4 4 5 4 3 1 2 4 2 3 3 2 2 5
6 4 4 4 3 3 3 2 1 1 2 2 3 4 3 4 5 6 6 6 6 5 3 3 4 5 5 5 4 4 4 4 3 2 1 1 1 3 3 4 6 8 10
7 6 4 4 3 3 2 1 1 1 2 3 4 5 6 6 7 6 6 6 6 6 6 6 6 6 7 7 6 5 5 5 4 2 2 3 4 5 8 10 12 13 11
7 6 4 2 2 2 2 2 2 3 3 4 5 8 8 9 9 8 8 9 9 9 8 7 7 7 8 8 9 8 6 6 6 5 6 6 4 13 12 10 11 11 10
7 6 4 2 1 1 2 3 3 4 5 4 5 9 10 8 9 9 9 9 10 10 10 9 9 9 8 9 9 10 9 9 7 7 8 10 9 12 13 14 12 11 10
7 5 4 2 2 2 3 4 5 6 6 6 6 7 11 10 9 10 10 11 11 12 12 12 11 11 10 10 10 11 12 13 12 10 9 11 12 13 15 13 13 13 12
5 3 2 2 3 4 5 6 8 8 9 9 10 11 12 10 10 10 10 12 12 13 13 12 12 12 13 13 13 13 14 15 16 14 13 13 13 14 18 18 16 15 14
4 2 1 2 4 5 6 6 8 9 11 12 12 13 12 11 12 11 11 12 12 12 13 12 13 14 15 16 16 16 16 16 18 18 17 16 15 16 18 19 18 17 16
3 1 2 4 5 6 7 6 7 8 9 11 11 12 11 12 13 13 14 11 10 12 13 15 15 16 17 16 16 16 17 18 19 20 20 19 19 19 17 22 21 20 20
2 1 3 4 5 6 6 6 6 7 6 8 9 9 9 10 12 13 14 14 15 13 12 13 15 16 17 18 17 15 16 18 18 18 19 20 17 19 18 22 22 21 22
1 2 3 4 5 6 6 7 7 8 8 9 10 9 8 8 10 10 11 12 13 11 10 9 10 10 11 13 14 14 14 16 18 19 20 19 18 20 20 21 25 25 23
2 2 4 5 5 6 7 7 8 9 9 10 11 11 10 9 10 9 9 9 11 12 13 13 12 10 11 12 14 18 17 18 18 18 19 20 21 22 23 25 27 29 28
1 1 3 5 6 8 9 9 9 9 11 11 11 11 10 10 9 8 8 9 10 11 12 13 14 17 18 19 19 17 16 15 19 22 25 19 22 23 23 25 26 29 30
2 1 4 6 7 9 10 10 9 8 10 11 9 10 9 9 9 8 8 9 9 11 12 14 14 15 16 17 18 20 22 22 21 21 19 19 21 25 24 26 25 27 31
3 4 6 7 8 10 11 12 11 10 8 9 6 6 6 6 6 6 6 7 6 7 9 11 12 13 14 16 17 13 12 15 18 19 19 19 19 21 22 23 24 27 30
5 5 7 8 9 10 12 12 12 11 7 6 7 6 5 4 5 5 5 7 6 7 8 7 9 10 10 9 10 10 10 8 9 12 14 15 15 17 16 19 19 23 23
8 7 7 8 10 11 12 12 12 12 7 7 8 7 8 6 5 4 4 5 5 8 10 9 9 6 8 10 8 9 8 7 8 7 8 9 12 14 14 15 15 15 12
10 9 9 9 10 10 12 10 10 10 10 8 8 5 6 5 4 4 5 5 6 7 9 10 10 9 8 8 8 7 5 6 8 10 10 11 12 12 13 14 12 12 13
12 10 10 10 10 10 11 10 10 10 11 13 7 3 3 4 5 7 8 8 7 8 9 8 9 9 10 10 10 8 4 6 8 11 9 9 8 8 10 12 14 15 12
14 12 12 10 10 11 12 9 11 11 12 9 5 4 4 6 6 6 5 6 8 8 8 8 9 9 9 10 7 5 7 2 4 9 9 7 8 10 11 13 13 15 17
14 15 13 11 10 12 12 10 9 8 8 4 3 4 5 4 4 4 5 7 7 7 8 9 9 10 13 13 12 5 2 3 4 6 7 11 12 14 15 15 15 15 14
15 15 13 11 11 12 11 8 8 5 4 5 4 5 4 3 4 6 6 7 9 9 9 9 9 9 9 10 10 7 4 3 14 4 5 9 11 14 17 19 20 18 16
15 14 12 11 12 12 9 7 7 7 8 6 6 4 3 4 4 6 7 9 9 9 9 9 9 9 9 8 7 7 7 8 5 7 5 12 14 17 18 17 17 16 17
14 15 12 12 13 13 9 8 9 9 8 8 7 6 5 6 7 8 9 9 9 9 9 9 9 9 9 9 9 6 4 6 10 12 21 19 20 16 9 13 13 14 17
15 14 13 14 13 12 10 9 10 10 10 9 8 8 8 8 9 9 9 10 10 10 10 10 10 9 9 9 10 10 10 7 8 11 19 24 25 18 13 4 9 11 14
Wind_Direction
111 76 120 115 107 103 100 82 75 62 46 46 37 35 31 33 30 31 28 31 42 54 50 50 44 37 34 27 28 34 34 40 47 66 75 34 343 312 229 207 100 92 15
141 93 131 108 96 96 91 86 54 43 31 31 26 29 27 18 16 20 23 23 25 31 54 7 10 9 1 354 355 355 8 15 15 19 75 75 48 345 254 241 267 314 318
165 159 122 100 82 66 67 68 53 34 11 13 2 338 345 343 347 353 356 1 5 3 346 305 330 318 312 309 322 334 325 335 348 354 330 311 293 326 301 261 270 292 299
176 158 130 112 97 83 62 45 12 1 342 337 329 320 320 320 323 330 330 334 336 338 340 323 302 293 306 287 281 300 322 315 302 291 208 285 289 291 286 279 280 285 289
167 151 135 121 92 82 52 37 12 347 342 351 350 335 321 314 312 311 315 316 315 317 319 318 317 306 294 288 279 275 299 318 307 276 250 255 277 279 287 290 292 288 287
151 149 149 143 114 233 298 320 320 313 311 309 325 320 318 300 297 298 300 302 301 303 305 306 304 303 300 295 279 272 274 286 296 290 266 260 262 283 289 288 292 288 286
150 148 165 195 239 260 273 287 290 296 299 295 291 284 294 303 304 300 296 295 291 293 295 299 298 297 297 295 288 281 278 280 284 285 278 262 270 277 283 285 285 287 282
148 144 162 212 251 262 266 272 278 285 288 289 290 291 297 296 298 299 298 295 296 296 296 297 298 297 295 292 289 286 283 280 282 282 280 275 267 270 284 286 286 284 279
149 150 278 305 307 295 288 291 287 286 284 283 285 286 289 291 288 288 288 284 290 294 296 301 302 299 296 293 291 289 288 287 287 286 283 277 269 265 276 285 282 282 278
175 215 302 322 328 322 332 326 314 303 297 295 293 291 287 275 273 279 285 286 290 292 287 286 286 292 295 295 293 291 287 285 282 286 287 285 280 268 266 276 285 282 279
202 293 335 337 341 339 339 327 321 310 313 304 298 298 292 276 268 268 276 284 287 289 287 289 294 289 285 289 296 296 288 281 284 285 291 291 282 266 259 272 279 284 277
265 342 354 350 346 339 331 326 318 308 307 299 290 291 294 283 277 278 273 270 273 281 290 293 300 299 299 297 289 294 290 292 284 281 281 284 281 280 267 270 275 277 279
256 343 358 355 352 344 337 327 314 304 298 295 304 312 311 299 286 279 274 265 266 268 272 274 273 279 277 281 279 269 277 284 293 294 283 281 280 281 278 272 270 272 273
219 335 350 354 352 346 341 334 325 308 301 305 309 306 302 300 299 305 301 292 282 274 273 273 265 264 266 266 271 274 274 283 280 277 277 284 282 283 284 283 275 272 274
235 322 344 350 346 344 345 342 333 316 307 312 315 307 303 299 299 307 297 280 277 272 272 275 277 277 276 278 279 277 268 268 275 282 286 288 285 277 276 277 276 274 273
279 322 335 341 342 346 346 343 335 334 337 312 315 323 315 304 310 306 298 303 307 295 282 284 287 286 286 286 291 300 304 280 276 276 286 291 287 286 281 281 283 281 280
274 299 313 326 337 340 344 342 328 337 343 305 310 329 315 309 304 309 305 321 323 307 310 301 286 277 281 299 315 334 327 337 349 298 284 294 297 300 304 295 292 285 293
264 283 302 318 329 334 338 336 319 319 336 292 299 312 311 329 331 349 343 328 327 314 326 336 334 330 324 334 353 353 5 9 3 340 332 320 317 317 317 311 307 301 293
252 273 295 308 319 327 331 325 310 312 322 303 303 313 326 339 341 337 328 341 336 339 346 355 356 352 348 352 355 6 336 352 356 358 345 331 330 324 324 316 304 296 293
257 269 281 296 310 318 323 313 299 299 306 309 319 322 333 320 324 322 340 349 355 345 342 351 0 357 358 359 11 33 46 32 346 347 4 359 352 342 330 319 312 312 301
257 265 276 290 302 313 320 304 292 296 301 292 327 316 319 321 332 336 342 345 345 350 359 4 9 8 9 20 52 88 87 64 326 351 355 350 345 339 336 331 313 305 301
268 270 278 287 294 313 319 304 288 290 293 281 305 319 336 344 347 342 339 336 339 339 346 348 347 355 358 7 16 38 11 243 312 2 338 327 338 340 336 337 333 321 322
273 282 279 284 295 310 314 292 285 263 275 274 307 322 314 311 316 323 326 321 320 333 338 344 350 358 7 3 3 16 2 342 327 251 289 314 319 325 328 325 324 320 320
280 285 282 285 296 307 303 277 268 262 262 277 292 284 321 336 326 314 306 308 320 333 338 336 341 344 354 1 8 353 336 315 320 306 275 269 305 312 318 318 316 316 321
270 285 283 288 294 303 293 269 256 256 258 264 263 281 287 290 295 298 305 313 321 322 322 324 325 331 342 345 344 344 327 288 274 280 300 307 311 325 337 310 305 312 317
269 279 284 290 298 299 284 264 256 256 262 262 268 274 281 288 290 293 302 308 308 312 311 312 319 324 326 330 330 327 323 306 284 290 297 308 317 329 347 318 310 303 306
Height
1562 1562 1562 1562 1562 1562 1562 1562 1562 1562 1562 1562 1562 1561 1561 1560 1560 1559 1558 1558 1557 1557 1557 1557 1556 1556 1556 1555 1555 1555 1555 1554 1554 1553 1553 1553 1553 1552 1552 1552 1552 1551 1552
1562 1562 1562 1562 1562 1562 1562 1562 1563 1562 1562 1562 1561 1561 1561 1560 1560 1559 1559 1558 1558 1557 1557 1557 1557 1556 1556 1555 1555 1555 1555 1554 1554 1553 1553 1553 1552 1552 1552 1552 1552 1551 1551
1562 1562 1562 1562 1562 1562 1562 1562 1562 1562 1562 1562 1562 1561 1560 1560 1560 1559 1559 1558 1558 1557 1557 1557 1556 1556 1556 1555 1555 1554 1554 1554 1554 1553 1552 1552 1552 1552 1553 1552 1551 1551 1551
1561 1561 1562 1561 1562 1562 1562 1562 1562 1562 1562 1562 1561 1561 1560 1560 1559 1559 1558 1558 1558 1557 1557 1556 1556 1556 1555 1554 1554 1554 1553 1553 1553 1553 1552 1551 1550 1551 1551 1551 1550 1550 1549
1560 1561 1561 1561 1562 1562 1562 1562 1562 1562 1562 1561 1561 1561 1560 1560 1559 1558 1558 1557 1557 1557 1556 1555 1555 1554 1554 1553 1553 1553 1552 1552 1552 1552 1552 1551 1550 1550 1550 1550 1549 1548 1547
1559 1560 1560 1561 1561 1561 1561 1561 1561 1561 1561 1560 1560 1559 1559 1558 1557 1557 1556 1556 1555 1555 1555 1554 1554 1553 1552 1552 1551 1551 1551 1550 1550 1550 1550 1550 1549 1549 1548 1548 1547 1547 1546
1559 1559 1560 1560 1560 1560 1560 1560 1560 1559 1559 1559 1558 1558 1557 1556 1556 1555 1555 1554 1553 1553 1552 1552 1552 1551 1551 1550 1550 1549 1549 1548 1548 1548 1548 1548 1547 1547 1547 1546 1546 1545 1545
1559 1558 1558 1559 1558 1558 1558 1558 1558 1558 1557 1556 1556 1555 1555 1554 1554 1553 1553 1552 1551 1551 1550 1550 1550 1549 1549 1549 1548 1547 1547 1546 1546 1546 1546 1546 1545 1545 1544 1544 1544 1544 1543
1558 1558 1558 1558 1557 1557 1557 1557 1556 1556 1555 1554 1553 1552 1552 1551 1550 1550 1549 1549 1549 1548 1548 1548 1547 1547 1546 1546 1546 1545 1545 1544 1543 1543 1543 1543 1543 1542 1542 1542 1541 1541 1541
1557 1557 1557 1557 1556 1555 1555 1555 1554 1554 1552 1551 1550 1549 1549 1548 1547 1546 1546 1546 1545 1545 1544 1544 1544 1544 1543 1542 1542 1542 1541 1541 1540 1540 1539 1539 1540 1539 1539 1539 1539 1539 1538
1556 1556 1556 1556 1555 1554 1553 1552 1552 1551 1550 1549 1548 1547 1546 1545 1544 1543 1543 1543 1542 1541 1540 1540 1540 1540 1540 1539 1539 1538 1537 1537 1536 1536 1536 1536 1535 1535 1535 1535 1535 1535 1535
1555 1555 1555 1555 1555 1554 1552 1551 1550 1549 1548 1547 1545 1544 1544 1543 1542 1541 1541 1540 1539 1538 1538 1537 1536 1536 1536 1536 1535 1535 1534 1533 1533 1532 1532 1532 1532 1531 1532 1531 1531 1531 1531
1555 1555 1555 1554 1553 1552 1551 1550 1548 1547 1545 1544 1544 1543 1542 1541 1539 1538 1538 1537 1536 1535 1534 1533 1533 1533 1532 1531 1530 1530 1530 1530 1529 1529 1529 1528 1528 1528 1527 1527 1526 1526 1526
1553 1553 1554 1553 1552 1551 1550 1548 1547 1545 1543 1543 1542 1541 1539 1538 1537 1536 1536 1535 1534 1532 1531 1530 1528 1528 1528 1527 1526 1526 1526 1525 1525 1525 1525 1525 1524 1523 1522 1521 1521 1521 1520
1552 1552 1552 1552 1551 1550 1548 1547 1545 1543 1542 1541 1540 1539 1537 1536 1535 1533 1532 1531 1530 1529 1528 1527 1526 1524 1523 1523 1522 1522 1521 1521 1521 1520 1520 1520 1519 1517 1516 1516 1515 1515 1514
1550 1550 1550 1549 1548 1547 1546 1544 1543 1541 1540 1539 1537 1536 1535 1534 1533 1531 1530 1530 1528 1526 1525 1524 1523 1522 1521 1519 1518 1518 1516 1516 1516 1516 1516 1515 1513 1511 1512 1512 1512 1510 1509
1549 1549 1549 1548 1547 1545 1544 1542 1540 1539 1538 1536 1535 1534 1534 1533 1531 1531 1529 1528 1526 1525 1524 1522 1521 1519 1519 1517 1516 1516 1515 1514 1513 1512 1511 1511 1510 1508 1508 1507 1506 1505 1504
1546 1547 1547 1546 1545 1544 1542 1540 1538 1538 1538 1536 1534 1534 1533 1532 1531 1530 1529 1527 1526 1524 1523 1521 1519 1518 1517 1516 1515 1515 1513 1512 1510 1509 1509 1508 1508 1507 1506 1505 1504 1503 1502
1544 1544 1545 1544 1543 1542 1540 1538 1536 1537 1536 1535 1533 1533 1533 1532 1531 1530 1529 1527 1526 1524 1522 1520 1518 1516 1515 1515 1514 1513 1511 1510 1510 1510 1509 1508 1507 1506 1505 1503 1501 1499 1498
1541 1542 1543 1542 1542 1540 1539 1536 1534 1534 1535 1533 1532 1532 1532 1531 1530 1529 1528 1527 1526 1524 1523 1520 1518 1516 1514 1513 1513 1511 1510 1511 1510 1509 1508 1507 1506 1505 1504 1502 1500 1498 1496
1539 1540 1540 1540 1539 1539 1537 1535 1532 1533 1533 1532 1531 1531 1531 1531 1530 1529 1528 1527 1526 1524 1522 1520 1518 1516 1514 1512 1512 1511 1510 1510 1510 1509 1508 1507 1506 1504 1503 1501 1499 1496 1494
1537 1538 1538 1537 1537 1536 1534 1533 1532 1532 1531 1530 1530 1530 1531 1530 1529 1528 1527 1526 1525 1524 1522 1520 1518 1517 1514 1512 1511 1510 1510 1511 1510 1509 1508 1505 1504 1503 1501 1499 1497 1494 1493
1535 1535 1535 1535 1535 1534 1532 1531 1531 1531 1530 1529 1530 1530 1530 1529 1528 1528 1527 1526 1524 1523 1522 1520 1518 1516 1514 1513 1511 1511 1510 1510 1509 1508 1507 1506 1504 1502 1500 1497 1495 1493 1492
1533 1533 1533 1533 1532 1531 1530 1529 1529 1529 1529 1528 1529 1529 1529 1528 1527 1526 1525 1524 1523 1522 1520 1519 1517 1515 1513 1512 1512 1511 1510 1510 1510 1507 1506 1504 1503 1501 1498 1495 1492 1490 1489
1530 1531 1531 1530 1529 1529 1528 1527 1527 1527 1527 1527 1527 1528 1527 1526 1525 1524 1523 1522 1521 1520 1518 1517 1515 1513 1512 1511 1510 1510 1510 1509 1508 1507 1501 1499 1499 1499 1496 1493 1490 1489 1488
1528 1528 1528 1527 1527 1526 1525 1525 1525 1525 1526 1526 1526 1526 1525 1524 1524 1522 1521 1520 1519 1518 1517 1515 1514 1512 1511 1509 1508 1507 1506 1507 1506 1505 1501 1497 1494 1494 1494 1491 1490 1488 1486